047  
SXUS52 KJAX 231614  
OSOJAX  
OTHER SURFACE OBSERVATIONS  
NATIONAL WEATHER SERVICE JACKSONVILLE FL  
1100 AM EST SAT JAN 23 2021  
 
FLZ020>025-030>033-035>038-040-231700-   
..FLORIDA
 
 
 
CITY SKY/WX TMP DP RH WIND PRES REMARKS  
CECIL FIELD CLOUDY 57 55 94 N8 30.15R FOG  
HERLONG FIELD NOT AVBL  
FERNANDINA BCH NOT AVBL  
LAKE CITY FAIR 59 46 63 NE7 30.15R  
JUNIPER SPGS NOT AVBL  
BUNNELL NOT AVBL  
KEYSTONE HGTS CLOUDY 57 57 100 NE6 30.14R FOG  

 
 
GAZ132>136-149>154-162>166-231700-   
..GEORGIA
 
 
 
CITY SKY/WX TMP DP RH WIND PRES REMARKS  
JESUP FAIR 55 45 67 CALM 30.17S  
HOMERVILLE FAIR 55 41 58 N5 30.17S  
SWAINSBORO FAIR 52 39 62 E9 30.21R  
CORDELE NOT AVBL  
EASTMAN FAIR 51 40 64 NE7 30.22S  

 
 
PLEASE NOTE: THESE OBSERVATIONS ARE NOT QUALITY CONTROLLED AND MAY  
NOT BE AVAILABLE AT ALL TIMES.  

 
 
 
CLICK HERE TO GO TO PREVIOUS BULLETINS.

The Nexlab FL Page
The Nexlab GA Page Main Text Page